Regional Weather Roundup
Issued by NWS

Home | Current Version | Previous Version | Text Only | Print | Product List | Glossary Off
Versions: 1 2 3 4 5 6 7 8 9 10 11 12 13 14 15 16 17 18 19 20 21 22 23 24 25 26 27 28 29 30 31 32 33 34 35 36 37 38 39 40 41 42 43 44 45 46 47 48 49 50

370
ASUS43 KLSX 222010
RWRMO

WEATHER SUMMARY FOR MISSOURI
NATIONAL WEATHER SERVICE SPRINGFIELD MO
200 PM CST SUN JAN 22 2017

NOTE: "FAIR" INDICATES FEW OR NO CLOUDS BELOW 12,000 FEET WITH NO
       SIGNIFICANT WEATHER AND/OR OBSTRUCTIONS TO VISIBILITY.
       CURRENT SKY AND/OR WEATHER CONDITIONS ARE NOT AVAILABLE FOR
       CHILLICOTHE AND FARMINGTON.

MOZ001>031-035>038-043-044-053-054-222100-
...NORTHERN AND WESTERN MISSOURI...

CITY           SKY/WX    TMP DP  RH WIND       PRES   REMARKS
KANSAS CTY INT CLOUDY    34  29  82 NW16G23   29.72R WCI  24
KANSAS C DTWN  CLOUDY    37  31  78 N13G20    29.72S WCI  29
LEE`S SUMMIT   CLOUDY    36  32  85 NW16G26   29.69R WCI  26
ST JOSEPH      CLOUDY    36  34  92 N14       29.76S WCI  27
CHILLICOTHE      N/A     38  34  85 N10G21    29.70F
KIRKSVILLE     CLOUDY    37  36  96 NW13      29.66S FOG     WCI  29

$$
MOZ066>068-077>081-088>096-101>105-222100-
...SOUTHWEST MISSOURI...

CITY           SKY/WX    TMP DP  RH WIND       PRES   REMARKS
SPRINGFIELD    LGT RAIN  46  43  89 N17       29.56R
JOPLIN         LGT RAIN  46  44  93 N20G26    29.63R
BRANSON        LGT RAIN  46  46 100 N17G30    29.48R FOG

$$
MOZ032>034-039>042-045>050-055>058-069>072-222100-
...CENTRAL MISSOURI...

CITY           SKY/WX    TMP DP  RH WIND       PRES   REMARKS
COLUMBIA       CLOUDY    47  42  83 NW10      29.59R
JEFFERSON CITY LGT RAIN  47  41  80 NW12      29.58S
ROLLA          CLOUDY    47  43  86 N16       29.50S
SEDALIA        LGT RAIN  44  41  89 N17       29.66R
WHITEMAN AFB   LGT RAIN  41  41 100 N15       29.64R FOG
WARRENSBURG    CLOUDY    39  37  93 NW18G24   29.66R WCI  30
OSAGE BEACH    RAIN      44  42  93 NW7       29.59R FOG

$$
MOZ051-052-059>065-222100-
...EAST CENTRAL MISSOURI...

CITY           SKY/WX    TMP DP  RH WIND       PRES   REMARKS
ST LOUIS INTL  CLOUDY    52  45  77 N10       29.51R
SPIRIT OF STL  CLOUDY    51  46  83 NE8       29.52R HAZE
ST CHARLES     CLOUDY    52  45  77 N16       29.51F

$$
MOZ072>076-082>087-097>100-106>115-222100-
...SOUTH CENTRAL AND SOUTHEAST MISSOURI...

CITY           SKY/WX    TMP DP  RH WIND       PRES   REMARKS
CAPE GIRARDEAU CLOUDY    63  51  65 N14       29.36F
FARMINGTON     CLOUDY    56  49  77 N13G18    29.44S
POPLAR BLUFF   PTSUNNY   61  55  81 N13       29.35F
WEST PLAINS    LGT RAIN  50  47  89 N16G23    29.45R

$$




USA.gov is the U.S. government's official web portal to all federal, state and local government web resources and services.